Dewpoint
42 43 44 45 47 47 47 47 46 46 46 44 43 43 42 42 42 41 40 39 39 39
44 44 45 46 47 47 47 46 45 44 43 44 45 43 43 43 42 41 41 41 41 40
44 45 45 46 45 45 45 44 44 43 42 42 42 43 43 42 42 41 41 41 41 41
44 44 44 44 44 44 43 43 43 44 44 43 43 43 42 42 42 41 41 41 41 40
42 42 42 41 41 42 41 42 43 43 42 42 43 43 42 42 41 40 40 41 40 40
41 41 40 40 41 41 42 41 41 41 41 41 41 40 40 40 40 40 40 40 40 40
41 41 42 41 42 42 40 39 38 38 38 39 40 40 40 39 39 39 39 40 40 40
41 42 43 44 43 41 41 41 40 39 38 38 37 37 38 39 39 40 40 41 41 41
41 43 45 43 42 42 43 42 41 40 39 39 38 45 49 46 40 39 39 39 40 41
41 44 44 42 42 43 42 41 41 41 41 42 42 49 51 50 44 42 41 41 41 42
41 42 42 41 42 42 42 42 43 44 43 43 44 50 51 49 43 42 41 42 42 42
40 40 41 41 42 42 43 44 44 44 43 42 42 48 49 45 41 41 41 42 42 42
39 39 40 42 42 43 44 44 44 43 43 45 43 47 47 44 41 40 41 41 42 45
39 40 41 43 44 44 44 44 43 43 43 43 43 43 48 46 40 40 40 40 40 41
Lifted_Index
14 13 13 12 11 10 10 10 11 11 12 12 13 14 14 14 15 16 16 17 17 16
13 13 12 11 10 10 10 10 11 11 11 12 12 13 14 14 14 15 16 16 16 16
12 12 11 10 9 9 10 10 11 11 11 11 12 12 13 13 14 14 15 15 15 15
11 10 9 9 9 9 10 10 11 11 11 11 12 12 12 12 13 13 13 14 14 13
10 9 9 9 9 9 9 10 10 11 11 12 12 12 12 12 12 12 12 12 12 12
9 9 9 9 9 9 9 9 10 10 11 12 12 12 12 12 12 12 12 12 12 12
9 9 9 9 9 9 9 9 9 10 11 12 13 13 13 13 13 13 13 13 13 13
9 9 9 9 9 9 9 9 9 9 10 11 13 13 13 13 14 14 14 14 13 13
8 9 9 9 9 9 9 9 8 8 9 10 12 13 14 14 14 14 14 14 14 13
8 8 8 9 9 9 9 9 9 8 8 10 12 14 14 14 14 14 14 14 13 13
8 8 8 9 9 10 10 9 9 8 8 10 13 14 14 14 14 14 14 14 13 13
8 8 8 8 9 10 10 9 9 8 9 10 13 14 14 14 14 14 14 13 13 13
8 8 8 8 9 9 9 9 8 8 9 11 13 14 14 14 14 14 14 13 13 12
8 8 8 8 9 9 9 9 8 8 9 12 13 14 14 14 14 14 13 13 13 12